TimePST,TemperatureF,Dew PointF,Humidity,Sea Level PressureIn,VisibilityMPH,Wind Direction,Wind SpeedMPH,Gust SpeedMPH,PrecipitationIn,Events,Conditions,WindDirDegrees,DateUTC
12:56 AM,53.1,23.0,31,30.13,10.0,Calm,Calm,-,N/A,,Clear,0,2012-11-06 08:56:00
1:56 AM,46.9,21.0,36,30.14,10.0,Calm,Calm,-,N/A,,Clear,0,2012-11-06 09:56:00
2:56 AM,48.0,21.0,34,30.13,10.0,Calm,Calm,-,N/A,,Clear,0,2012-11-06 10:56:00
3:56 AM,43.0,19.9,40,30.14,10.0,Calm,Calm,-,N/A,,Clear,0,2012-11-06 11:56:00
4:56 AM,44.1,19.9,38,30.16,10.0,Calm,Calm,-,N/A,,Clear,0,2012-11-06 12:56:00
5:56 AM,43.0,19.9,40,30.17,10.0,Calm,Calm,-,N/A,,Clear,0,2012-11-06 13:56:00
6:56 AM,45.0,23.0,42,30.19,10.0,Calm,Calm,-,N/A,,Clear,0,2012-11-06 14:56:00
7:56 AM,54.0,27.0,35,30.20,10.0,Calm,Calm,-,N/A,,Clear,0,2012-11-06 15:56:00
8:56 AM,61.0,26.1,26,30.19,10.0,Calm,Calm,-,N/A,,Clear,0,2012-11-06 16:56:00
9:56 AM,69.1,27.0,21,30.18,10.0,Calm,Calm,-,N/A,,Clear,0,2012-11-06 17:56:00
10:56 AM,75.9,27.0,16,30.15,10.0,Calm,Calm,-,N/A,,Clear,0,2012-11-06 18:56:00
11:56 AM,81.0,27.0,14,30.12,10.0,Calm,Calm,-,N/A,,Clear,0,2012-11-06 19:56:00
12:56 PM,82.9,28.9,14,30.08,10.0,Calm,Calm,-,N/A,,Clear,0,2012-11-06 20:56:00
1:56 PM,84.0,30.0,14,30.06,10.0,Calm,Calm,-,N/A,,Clear,0,2012-11-06 21:56:00
2:56 PM,84.0,28.9,14,30.06,10.0,East,4.6,-,N/A,,Clear,80,2012-11-06 22:56:00
3:56 PM,82.9,28.9,14,30.05,10.0,Calm,Calm,-,N/A,,Clear,0,2012-11-06 23:56:00
4:56 PM,80.1,28.9,15,30.05,10.0,South,3.5,-,N/A,,Clear,190,2012-11-07 00:56:00
5:56 PM,69.1,28.0,22,30.07,10.0,WSW,6.9,-,N/A,,Clear,240,2012-11-07 01:56:00
6:56 PM,62.1,30.0,30,30.08,10.0,West,4.6,-,N/A,,Clear,260,2012-11-07 02:56:00
7:56 PM,61.0,28.9,30,30.09,10.0,WNW,8.1,-,N/A,,Clear,290,2012-11-07 03:56:00
8:56 PM,57.0,28.0,33,30.09,10.0,West,8.1,-,N/A,,Clear,280,2012-11-07 04:56:00
9:56 PM,54.0,26.1,34,30.09,10.0,WNW,9.2,-,N/A,,Clear,290,2012-11-07 05:56:00
10:56 PM,55.0,27.0,34,30.07,10.0,WNW,9.2,-,N/A,,Clear,290,2012-11-07 06:56:00
11:56 PM,54.0,27.0,35,30.06,10.0,West,3.5,-,N/A,,Clear,280,2012-11-07 07:56:00